Volver al catálogo

ATLAS 5 CENTAUR DEB

ActivoHEO
NORAD 46660·DEBRIS·🇺🇸 United States

Lanzado Oct 17, 2018 desde Cape Canaveral Space Force Station

Loading…

Próximos Pases (próximas 24 horas)

TLE

ActualizadoSource: Space-Track

Época: Sep 13, 2026, 06:05 UTC

1 46660U 18079CN  26256.25406468 -.00000175  00000-0  00000-0 0  9997
2 46660  13.3689  33.6800 4594020 317.4241  14.8488  1.81071963 13564

Sigue ATLAS 5 CENTAUR DEB en tiempo real con AllMySat

Download on the App Store